Regional Weather Roundup
Issued by NWS Jackson, KY

Home | Current Version | Previous Version | Graphics & Text | Print | Product List | Glossary On
Versions: 1 2 3 4 5 6 7 8 9 10 11 12 13 14 15 16 17 18 19 20 21 22 23 24 25 26 27 28 29 30 31 32 33 34 35 36 37 38 39 40 41 42 43 44 45 46 47 48 49 50
000
ASUS43 KJKL 252210
RWRJKL

EAST KENTUCKY HOURLY WEATHER ROUNDUP
NATIONAL WEATHER SERVICE JACKSON KY
600 PM EDT SUN SEP 25 2016

NOTE: "FAIR" INDICATES FEW OR NO CLOUDS BELOW 12,000 FEET WITH
NO SIGNIFICANT WEATHER AND/OR OBSTRUCTIONS TO VISIBILITY.

* THESE REPORTS ARE NOT UNDER NWS QUALITY CONTROL AND MAY NOT
  REPORT WEATHER SUCH AS PRECIPITATION AND FOG.

KYZ079-080-083-085-087-088-110-112-115-119-120-252300
...EASTERN KENTUCKY...

CITY           SKY/WX    TMP DP  RH WIND       PRES   REMARKS
JACKSON        SUNNY     85  65  51 CALM      30.07F
LONDON         SUNNY     88  60  38 NE3       30.05F
SOMERSET*      SUNNY     86  61  42 N3        30.05S
MONTICELLO*    SUNNY     88  64  44 NW8G17    30.05S
WILLIAMSBURG*  CLEAR     86  64  48 NE3       30.05S
MIDDLESBORO*   SUNNY     85  66  52 CALM      30.05F
HARLAN APT*    CLEAR     86  61  42 CALM      30.07S
PIKE CO APT*     N/A     82  65  57 N5        30.08S
BIG SANDY APT* PTCLDY    83  65  54 CALM      30.07S
MOREHEAD APT*  CLEAR     84  63  48 CALM      30.07S
ASHLAND*       SUNNY     84  64  51 CALM      30.03S
$$

KYZ035-036-041-042-044-050-067-078-099-252300
...CENTRAL KENTUCKY...

CITY           SKY/WX    TMP DP  RH WIND       PRES   REMARKS
MT STERLING*   PTSUNNY   81  68  65 CALM      30.07S
FLEMING/MASON* SUNNY     84  62  47 NW3       30.06S
DANVILLE*      SUNNY     86  61  42 CALM      30.05S
LEXINGTON      CLOUDY    86  62  44 CALM      30.04F
FRANKFORT      PTSUNNY   88  64  44 CALM      30.02F
LOUISVILLE     PTSUNNY   91  61  36 NE5       30.00F HX  91
LEBANON*         N/A     86  64  48 NW5       30.04S
GLASGOW*       SUNNY     88  63  43 NW3       30.02S
BOWLING GREEN  SUNNY     90  62  39 N5        30.02S HX  90
$$

KYZ091>093-OHZ055-061-077-WVZ005-015-034-035-042-252300
...SOUTHERN OHIO/WEST VIRGINIA...

CITY           SKY/WX    TMP DP  RH WIND       PRES   REMARKS
COVINGTON      MOSUNNY   85  64  49 W3        30.04F
COLUMBUS       SUNNY     80  49  33 N6        30.06F
DAYTON         MOSUNNY   81  63  54 S3        30.06S
WILMINGTON     SUNNY     82  64  54 W7        30.05F
HUNTINGTON     SUNNY     86  61  42 N6        30.04F
CHARLESTON     MOSUNNY   86  57  37 W5        30.05S
PINEVILLE*     PTSUNNY   77  65  67 MISG      30.14S
BECKLEY        MOSUNNY   78  59  51 NW7       30.13R
BLUEFIELD      MOSUNNY   79  57  46 VRB6      30.15S
LOGAN CO APT*    N/A     82  64  54 CALM      30.08S
$$

VAZ002-007-008-TNZ017-027-036-066-071-252300
...SOUTHWEST VIRGINIA/EAST TENNESSEE...

CITY           SKY/WX    TMP DP  RH WIND       PRES   REMARKS
WISE*          MOSUNNY   81  50  34 NW3       30.16S
JONESVILLE*      N/A     84  64  51 N3        30.08S
ABINGDON*      MOSUNNY   83  60  45 NW3       30.10S
BRISTOL        MOSUNNY   87  59  38 W6        30.06F
MORRISTOWN*    CLEAR     90  59  35 NW6       30.04S
SEVIERVILLE*     N/A     91  59  33 CALM      30.01S HX  90
KNOXVILLE      MOSUNNY   92  58  31 NW6       30.01S HX  91
OAK RIDGE      SUNNY     92  61  35 VRB3      30.03F HX  92
CROSSVILLE     CLOUDY    80  72  76 CALM      30.09F
NASHVILLE      MOSUNNY   91  61  36 NE9       30.01S HX  91
$$

...KEY TO REMARKS...
VSB - VISIBILITY IN MILES
WCI - WIND CHILL INDEX
HX  - HEAT INDEX

$$



USA.gov is the U.S. government's official web portal to all federal, state and local government web resources and services.